GFSCGP_con_sbcape_132.txt.gz
CAPE
0 0 0 0 0 0 0 0 0 0 0 0 0 0 0 0 0 0 0 0 0 164 377 299 84 100 46 113 171 0 374 291 327 335 284 151 200 50 98 97 46 17 21 9
0 1 0 0 0 0 0 0 0 0 0 0 0 0 0 0 0 0 0 0 0 0 0 106 171 181 38 120 81 16 105 339 484 465 51 132 1 16 39 22 24 20 0 3
0 0 0 0 0 0 0 0 0 0 0 0 0 0 0 0 0 0 0 0 0 0 0 0 286 282 108 12 22 37 5 42 305 0 0 0 0 0 2 0 0 29 51 51
0 0 0 0 0 0 0 0 0 0 0 0 0 0 0 0 0 0 0 0 0 0 0 0 97 185 90 6 0 0 2 31 0 0 0 2 4 0 0 0 15 46 56 80
0 0 0 0 0 0 0 0 0 0 0 0 0 0 0 0 0 0 0 0 0 0 0 0 0 186 0 0 0 0 0 4 0 0 0 0 0 0 1 0 0 0 64 93
1 4 0 0 0 0 0 0 0 0 0 0 0 0 0 0 0 0 0 0 0 0 0 0 0 0 0 30 141 98 72 4 0 0 0 3 22 18 20 14 47 16 32 0
64 65 0 14 0 0 2 0 0 0 0 0 0 0 0 0 0 0 0 0 0 0 0 0 0 0 1 0 0 0 0 1 0 0 0 0 0 0 0 0 0 0 0 0
51 71 21 21 7 0 0 0 0 0 0 0 0 0 0 0 0 0 0 0 0 0 0 0 0 0 0 0 0 0 0 0 0 0 0 0 0 0 0 0 0 0 0 0
79 28 3 11 0 0 0 0 0 0 0 0 0 0 1 0 0 0 0 0 0 0 1 1 0 0 0 0 0 0 0 0 0 0 0 0 0 0 0 0 0 0 0 0
8 130 21 16 24 1 0 0 0 0 0 0 0 0 0 0 1 2 0 0 1 1 0 0 0 0 0 0 0 0 0 0 0 0 0 0 0 0 0 0 0 0 0 0
57 0 5 5 25 0 0 0 0 0 0 0 0 0 0 0 0 0 1 1 0 0 0 0 0 0 0 0 0 0 0 0 0 0 0 0 0 0 0 0 0 0 0 0
25 0 1 0 0 0 0 0 0 0 0 0 0 1 0 0 0 0 0 0 0 0 0 0 0 0 0 0 0 0 0 0 0 0 0 0 0 0 0 0 0 0 0 0
44 22 0 8 0 0 0 0 0 0 0 0 0 0 0 0 0 0 0 0 0 0 0 0 0 0 0 0 0 0 0 0 0 0 0 0 0 0 0 0 0 0 0 0
76 1 0 0 0 0 0 0 0 0 0 0 0 20 39 1 0 0 0 0 0 0 0 0 0 0 0 0 0 0 0 0 0 0 0 0 0 0 0 0 0 0 0 0
50 4 1 0 0 0 0 0 0 0 0 0 24 74 54 3 0 0 0 0 0 0 0 0 0 0 0 0 0 0 0 0 0 0 0 0 0 0 0 0 0 0 0 0
0 5 0 41 120 77 0 0 0 0 25 47 54 84 14 0 0 0 0 0 0 0 0 0 0 0 0 0 0 0 0 0 0 0 0 0 0 0 0 0 0 0 0 0
0 0 0 0 88 124 55 63 10 44 53 37 76 55 0 0 0 0 0 0 0 0 0 0 0 0 0 0 0 0 0 0 0 0 0 0 0 0 0 0 0 0 0 0
0 0 0 0 0 1 12 12 63 68 58 52 50 28 0 0 0 0 0 0 0 0 0 0 0 0 0 0 0 0 0 0 0 0 0 0 0 0 0 0 0 0 0 0
0 0 0 0 0 64 159 58 90 34 33 25 0 0 0 0 0 0 0 0 0 0 0 0 0 0 0 0 0 0 0 0 0 0 0 0 0 0 0 0 0 0 0 0
0 0 0 1 26 17 8 4 0 13 4 0 0 0 0 0 0 0 0 0 0 0 0 0 0 0 0 0 0 0 0 0 0 0 0 0 0 0 0 0 0 0 0 0
6 4 0 0 0 3 0 1 0 0 0 0 0 0 0 0 0 0 0 0 0 0 0 0 0 0 0 0 0 0 0 0 0 0 0 0 0 0 0 0 0 0 0 0
1 2 1 0 0 0 0 0 0 0 0 0 0 0 0 0 0 0 0 0 0 0 0 0 0 0 0 0 0 0 0 0 0 0 0 0 0 0 0 0 0 0 0 0
1 1 1 4 7 4 0 0 0 0 0 0 0 0 0 0 0 0 0 1 1 1 0 1 0 0 0 0 0 0 4 3 0 0 0 0 0 0 0 0 0 0 0 0
3 0 0 0 10 5 1 0 0 0 0 0 0 0 0 0 0 0 0 0 0 0 1 0 0 0 0 1 4 6 4 0 0 0 0 0 0 0 0 0 0 0 0 0
6 0 1 11 6 1 4 1 0 0 0 0 0 0 0 0 0 0 0 0 1 3 4 6 3 6 4 0 1 0 1 0 0 0 3 3 0 0 0 0 0 0 0 0
12 0 0 6 0 0 3 0 0 0 0 0 0 0 0 0 0 0 0 0 0 0 0 0 0 1 0 1 0 0 0 4 1 8 5 8 7 3 0 0 0 0 0 0

GFSCGP_con_sbcape_135.txt.gz
CAPE
1 11 2 0 0 0 0 0 0 0 0 0 0 0 0 0 0 0 0 0 0 0 223 878 1063 1089 935 1039 903 1298 1580 1556 1428 1449 1409 1431 1390 1269 1138 1171 1220 1086 1101 1184
7 4 0 0 0 0 0 0 0 0 0 0 0 0 0 0 0 0 0 0 0 0 0 137 709 883 1037 1210 1303 1116 1568 1492 1535 1498 1408 1288 1220 1119 1195 1217 1007 834 605 555
0 0 0 10 7 0 0 0 0 0 0 0 0 0 0 0 0 0 0 0 0 0 0 0 132 729 1052 1229 1260 1284 1095 1536 1542 1373 952 781 909 853 1065 1166 967 912 690 596
0 0 0 5 3 0 0 0 0 0 0 0 0 0 0 0 0 0 0 0 0 0 0 0 0 721 1165 995 766 793 816 1160 1242 1151 1279 1278 1320 1234 645 646 576 566 459 440
0 0 0 19 0 1 0 0 0 0 0 0 0 0 0 0 0 0 0 0 0 0 0 0 0 5 857 399 442 616 831 906 923 1228 1371 1174 1016 818 550 384 404 312 340 96
0 3 0 0 0 0 0 0 0 0 0 0 0 0 0 0 0 0 0 0 0 0 0 0 0 18 188 396 494 634 770 710 759 749 662 719 763 710 643 407 277 117 1 3
22 49 4 9 7 7 18 0 2 0 0 0 0 0 0 0 0 0 0 0 1 0 0 0 1 61 29 30 56 152 158 163 245 263 205 195 299 393 242 94 20 5 0 0
37 43 53 82 2 6 10 4 0 0 0 0 0 0 0 0 2 2 1 1 1 0 0 1 2 0 1 23 108 161 37 0 0 0 0 0 0 0 0 0 0 0 0 0
20 14 1 63 64 24 32 13 0 0 0 0 0 0 0 1 2 1 0 3 5 6 1 5 1 4 4 3 3 1 0 0 0 0 0 0 0 0 0 0 0 0 0 0
15 34 0 130 152 82 2 0 0 0 0 0 0 0 0 11 1 2 3 6 7 3 3 3 2 3 3 2 2 1 0 0 0 0 0 0 0 0 0 0 0 0 0 0
12 70 22 190 121 39 61 26 0 0 0 0 0 0 0 87 2 3 8 9 1 0 0 0 0 0 0 0 0 0 0 0 0 0 0 0 0 0 0 0 0 0 0 0
36 18 167 117 86 102 19 0 0 0 0 5 0 11 41 77 9 9 7 1 0 0 0 0 0 0 0 0 0 0 0 0 0 0 0 0 0 0 0 0 0 0 0 0
62 11 117 88 1 12 53 0 1 0 2 34 8 10 32 57 7 1 0 0 0 0 0 0 0 0 0 0 0 0 0 0 0 0 0 0 0 0 0 0 0 0 0 0
95 23 0 67 17 2 14 3 0 0 8 25 75 6 65 31 5 1 0 0 0 0 0 0 0 0 0 0 0 0 0 0 0 0 0 0 0 0 0 0 0 0 0 0
66 101 6 1 3 0 4 0 0 0 5 13 103 85 76 4 0 0 0 0 0 0 0 0 0 0 0 0 0 0 0 0 0 0 0 0 0 0 0 0 0 0 0 0
10 179 83 15 16 4 2 0 0 0 91 121 161 175 112 1 0 0 0 0 0 0 0 0 0 0 0 0 0 0 0 0 0 0 0 0 0 0 0 0 0 0 0 0
7 59 247 125 32 15 33 5 3 30 147 265 308 65 0 0 0 1 0 0 0 0 0 0 0 0 0 0 0 0 0 0 0 0 0 0 0 1 2 0 0 0 0 1
8 63 94 46 33 18 111 232 55 154 191 217 253 31 0 0 0 0 0 0 0 0 0 0 0 0 0 0 0 0 0 0 0 0 0 0 2 5 2 0 0 0 2 4
0 17 142 166 139 185 262 182 157 163 210 230 56 0 0 0 0 1 0 0 0 0 0 0 0 0 0 0 0 0 0 0 0 0 0 0 4 6 1 0 0 4 6 7
1 0 113 105 124 43 237 164 10 142 8 0 0 0 0 0 0 1 0 0 0 0 0 0 0 0 0 2 2 0 0 0 0 0 0 0 0 1 0 0 1 3 1 0
3 2 48 19 18 62 1 0 0 97 60 0 0 2 0 0 0 0 1 0 0 0 0 0 0 0 3 5 4 3 3 2 2 0 0 0 1 0 0 1 2 1 0 1
9 5 7 5 34 104 1 0 20 1 1 0 0 0 0 0 0 1 0 0 1 1 0 0 4 6 4 3 3 4 5 3 2 0 2 3 2 1 0 0 1 0 0 0
2 9 6 9 8 10 6 4 0 0 0 0 0 0 0 0 0 0 0 1 1 1 3 5 6 2 8 7 8 3 5 3 5 5 7 3 2 0 0 1 1 0 0 0
8 1 3 0 6 11 8 3 1 0 1 1 0 1 0 0 0 1 2 3 4 6 6 6 5 6 7 1 3 4 7 5 6 5 6 6 2 0 0 1 2 0 0 0
22 6 5 14 12 2 8 5 2 3 2 0 0 0 0 0 1 2 4 5 4 6 5 3 8 5 2 3 7 9 9 4 4 3 4 8 8 0 0 2 3 0 0 0
11 12 11 12 3 1 7 4 0 0 0 0 0 0 0 0 0 0 1 3 5 6 7 5 2 4 6 6 7 9 10 10 5 4 6 11 15 5 0 0 0 0 0 0

GFSCGP_con_sbcape_138.txt.gz
CAPE
2 22 0 0 0 0 0 0 0 0 0 0 0 0 0 0 0 0 0 0 0 0 0 0 1024 2158 2516 2518 2350 2420 2606 2983 2992 2797 2750 2516 2438 2100 2012 1914 2004 2071 1861 1745
19 2 0 0 0 0 0 0 0 0 0 0 0 0 0 0 0 0 0 0 0 0 0 305 1523 2486 2371 2720 2701 2612 2616 2987 2833 2745 2784 2483 2376 2085 1934 1974 2064 1791 1750 1875
20 0 0 9 13 3 0 0 0 0 0 0 0 0 0 0 0 0 0 0 0 0 0 0 694 1741 2418 2766 2790 2630 2873 3055 2974 2919 2673 2255 2185 1868 1939 1996 2111 1831 1820 1933
42 19 3 0 13 10 8 0 0 0 0 0 0 0 0 0 0 0 0 0 0 0 0 0 0 637 1591 2271 2568 2629 2885 2886 2656 2641 2437 2422 2247 2382 2064 2160 1973 1672 1313 1220
3 10 57 33 9 25 7 8 0 0 0 0 0 0 0 0 0 0 0 0 0 0 0 0 0 0 957 1705 1947 2117 2278 2458 2259 2318 2362 2505 2329 2263 1873 1385 1262 1217 795 549
69 16 46 25 7 34 39 31 19 5 3 0 0 0 0 0 0 0 0 0 0 0 0 0 0 492 1126 1330 1576 1768 1921 2009 2045 2214 2208 2352 2320 1913 1661 1445 1154 804 581 299
34 77 70 61 59 43 43 66 60 32 11 0 0 0 0 0 0 0 0 0 0 0 0 0 18 617 1091 1437 1604 1538 1334 1371 1609 1663 1684 1756 1695 1438 1159 1008 622 344 96 13
39 43 72 102 76 27 27 42 6 1 0 0 0 0 0 0 0 0 0 1 0 0 0 26 149 321 558 972 1028 1012 1071 1166 1106 996 861 664 508 285 140 90 39 2 0 0
12 18 52 122 160 94 54 62 19 26 5 27 0 17 13 13 4 8 9 6 4 3 1 51 248 460 697 826 840 774 626 412 224 116 90 54 35 18 2 0 0 0 0 0
24 11 55 183 180 103 69 1 51 51 55 32 0 1 1 15 3 4 10 9 3 1 7 5 5 24 67 123 160 150 119 72 52 27 7 0 0 0 0 0 0 0 0 0
25 96 49 109 185 187 124 88 64 55 72 62 12 11 33 38 4 5 10 3 9 10 8 8 10 31 29 27 12 4 0 0 0 0 0 0 0 0 0 0 0 0 0 0
3 111 153 54 239 161 183 60 93 59 38 46 40 166 128 167 11 12 13 9 8 5 2 1 0 0 0 0 0 0 0 0 0 0 0 0 0 0 0 0 0 0 0 0
2 224 386 122 155 312 289 148 72 60 65 98 53 143 15 12 10 9 5 2 0 0 0 0 0 0 0 0 0 0 0 0 0 0 0 0 0 0 0 0 0 0 0 0
17 183 86 125 192 275 120 183 86 110 87 81 90 74 29 11 8 4 1 0 0 0 0 0 0 0 0 0 0 0 0 0 0 0 0 0 0 0 0 0 0 0 0 0
57 222 13 123 285 420 345 66 55 35 25 95 277 183 16 8 8 4 1 0 0 0 0 0 0 0 0 0 0 0 0 0 0 0 0 0 0 0 0 0 0 0 0 1
29 181 18 283 169 117 181 104 47 18 14 171 301 386 30 9 2 2 3 2 0 0 0 0 0 0 0 0 0 0 0 0 0 0 0 0 0 0 0 0 0 5 7 15
12 349 288 54 81 42 39 79 29 31 195 377 446 38 5 5 3 5 2 1 0 0 0 0 0 0 0 0 0 0 0 0 0 0 0 0 0 0 0 0 5 12 23 35
18 280 408 194 54 276 17 24 32 13 441 462 212 14 7 8 8 2 1 3 2 0 0 0 0 0 0 0 0 0 0 0 0 0 0 0 0 3 5 13 15 15 33 32
312 414 243 219 307 53 43 10 17 143 378 464 87 8 2 0 1 0 1 3 1 0 0 0 0 0 0 0 0 0 0 0 0 0 0 0 3 7 9 10 23 26 28 36
333 417 426 501 239 348 271 162 268 287 269 265 96 0 0 0 0 7 2 0 0 0 0 0 0 0 0 0 0 0 0 0 0 0 0 1 6 6 4 20 24 12 32 44
49 401 436 349 278 50 4 0 17 215 185 35 11 6 4 8 1 4 2 0 0 0 0 0 0 0 3 2 1 3 3 3 1 0 1 4 11 11 12 17 20 14 38 53
8 21 14 259 175 294 1 17 197 13 6 2 9 3 0 0 0 2 0 0 0 0 0 0 0 2 3 4 4 4 6 4 4 5 5 6 9 7 6 19 13 12 12 4
13 11 11 14 14 13 7 5 7 11 8 3 2 0 0 1 0 0 0 0 1 2 1 0 0 4 5 6 5 5 6 4 5 6 6 6 6 9 8 14 14 3 1 0
17 6 4 1 9 13 8 0 3 6 5 1 0 2 0 0 0 0 0 0 1 1 1 2 3 8 7 6 6 8 7 6 9 6 6 7 6 1 9 12 9 2 0 0
23 13 5 10 11 3 9 9 6 5 2 2 2 0 0 1 0 0 0 0 0 1 2 6 6 8 6 7 6 7 7 7 9 7 6 8 7 5 6 8 6 5 2 0
20 22 20 8 2 2 7 8 7 8 7 2 0 0 0 0 0 0 0 0 1 3 9 8 9 9 5 6 8 4 5 7 7 7 7 7 9 3 1 3 3 0 0 0

GFSCGP_con_sbcape_141.txt.gz
CAPE
13 74 80 5 0 0 0 0 0 0 0 0 0 0 0 0 0 0 0 0 0 0 0 0 110 714 3584 3883 3529 3598 3811 4487 3936 3545 2996 3654 2972 3135 2830 2424 2095 2938 2286 2791
40 19 0 7 16 4 0 9 8 0 0 0 0 0 0 0 0 0 0 0 0 0 0 0 88 1439 2398 3427 3376 3460 3631 4012 3966 3443 3604 3098 3094 3254 2996 2805 2353 2609 1935 1968
96 0 0 10 37 36 12 0 9 2 0 0 0 0 0 0 0 0 0 0 0 0 0 0 683 2122 2676 3076 3692 3558 4050 4313 3946 3688 4055 3460 2998 3769 2389 2314 3174 2639 2042 2081
164 6 6 2 34 39 52 1 11 5 7 0 0 0 0 0 0 0 0 0 0 0 0 10 698 2362 3005 3167 3375 3368 3357 3972 4080 4182 3563 3869 2800 2796 2848 3601 3216 2660 1695 1701
112 80 56 19 0 16 22 19 22 41 37 16 0 0 0 0 0 0 0 0 0 0 0 0 123 842 2070 3345 3360 3228 3341 3506 3236 3267 3461 2878 3154 2760 2347 2088 1957 1852 1247 942
39 122 62 53 7 14 41 44 60 72 75 23 19 0 0 0 0 0 0 0 0 0 0 0 0 246 1342 2241 3047 3070 3233 3276 2915 3089 3101 3047 3068 2971 2121 2009 1617 1378 1119 611
16 1 71 65 47 35 31 80 107 77 68 14 1 0 0 0 0 0 0 0 0 0 0 0 23 1058 1559 1789 2197 2374 2612 2506 2809 2536 2442 2844 2830 2565 2041 1813 1333 953 418 142
49 7 27 90 67 64 85 118 126 28 0 0 15 0 0 27 0 0 0 0 0 0 0 0 256 848 1293 1801 1902 1989 1966 2032 2063 1505 1454 1732 1648 1143 776 581 315 121 22 0
83 45 64 68 154 77 127 144 42 11 7 32 36 136 522 19 14 96 42 32 31 4 121 615 730 843 1295 1432 1564 1476 1363 1079 936 798 661 498 335 195 67 24 13 0 0 0
90 40 44 107 164 136 201 54 175 89 95 52 77 110 106 1 43 26 5 0 25 144 181 419 808 1035 1070 979 994 836 694 593 463 282 118 15 6 0 0 0 0 0 0 0
40 189 79 105 132 194 132 144 178 74 70 159 126 107 122 29 8 3 6 5 11 26 27 153 391 453 454 505 359 242 133 25 2 0 0 0 0 0 0 0 0 0 0 0
6 191 93 120 213 109 114 117 132 106 86 90 99 509 163 79 35 16 16 22 46 42 84 161 155 79 34 18 11 4 2 0 0 0 0 0 0 0 0 0 0 0 0 0
24 88 247 209 139 38 109 177 75 166 216 227 152 585 278 26 20 16 8 7 17 20 15 13 12 14 9 6 0 0 0 0 0 0 0 0 0 0 0 0 0 0 0 0
37 36 261 236 86 151 119 153 111 159 150 87 178 152 17 18 18 14 4 8 15 16 11 11 9 6 4 1 0 0 0 0 0 0 0 0 0 0 0 0 0 0 0 0
0 87 49 114 107 133 151 164 191 190 97 187 339 132 12 9 12 13 9 5 7 5 2 2 1 2 0 0 0 0 0 0 0 0 0 0 0 0 0 0 0 0 0 2
23 272 107 0 97 337 207 255 117 157 204 165 280 212 16 7 7 8 7 3 2 2 2 5 1 0 0 0 0 0 0 0 0 0 0 0 0 0 0 0 0 3 10 13
12 149 30 25 232 222 418 290 229 135 102 87 203 12 9 9 9 8 9 4 3 5 5 4 2 0 0 0 0 0 0 0 0 0 0 0 0 0 0 0 3 12 18 19
6 64 132 119 149 188 219 336 130 198 563 325 7 10 9 10 6 7 5 4 6 5 2 0 0 0 0 0 0 0 0 0 0 0 0 0 0 0 1 3 10 11 27 36
1 234 350 122 81 134 182 257 200 125 130 13 7 6 4 3 0 1 0 2 7 3 1 0 0 0 0 0 0 0 0 0 0 0 0 0 0 2 6 5 16 21 18 43
371 495 328 68 266 277 5 19 87 102 107 15 5 6 0 1 4 4 0 1 1 0 0 0 0 0 0 0 0 0 0 0 0 0 0 1 4 6 5 7 18 17 20 64
18 1 293 463 289 8 6 0 41 128 259 17 10 6 2 28 0 2 2 0 0 0 0 0 0 0 0 0 0 0 1 1 0 0 0 3 7 1 2 13 33 10 21 44
5 18 16 255 20 31 3 49 250 140 649 76 9 7 0 0 0 0 0 0 0 0 0 0 0 0 2 0 1 3 4 4 3 2 3 5 3 7 5 16 10 4 17 21
10 23 13 11 12 12 4 2 46 137 7 4 6 0 0 0 1 0 2 2 1 0 0 0 0 1 2 2 4 5 5 5 4 5 6 5 6 3 4 5 3 6 7 7
0 1 5 7 7 10 4 0 0 0 0 2 1 1 0 2 3 3 1 0 0 0 0 0 2 3 4 5 4 6 6 5 5 6 7 7 7 0 4 2 2 11 3 1
16 11 6 9 6 1 6 4 0 0 0 0 0 2 3 3 6 2 0 0 0 1 4 6 6 6 3 5 6 5 6 6 6 5 6 5 5 4 3 0 0 2 0 0
39 26 20 7 7 4 9 12 5 4 4 1 0 0 0 0 0 0 0 0 1 2 6 8 7 6 1 2 2 4 5 7 5 4 8 6 4 2 0 0 0 0 0 0

GFSCGP_con_sbcape_147.txt.gz
CAPE
37 32 0 0 0 0 0 0 0 0 0 0 0 0 0 0 0 0 0 0 0 0 0 0 0 708 1070 1395 430 238 269 1134 2016 2242 2189 1969 1909 1873 1682 2115 2367 2187 2182 2086
6 6 0 0 0 0 0 0 0 0 0 0 0 0 0 0 0 0 0 0 0 0 0 0 0 2135 1909 1433 269 0 565 1437 1660 1883 2115 2164 1878 1991 1342 1847 2034 1807 2025 1684
0 0 5 3 0 0 0 0 0 0 0 0 0 0 0 0 0 0 0 0 0 0 0 0 0 3061 2728 1870 1005 343 709 43 1251 1806 2404 2110 1586 1360 1354 1401 1510 1664 1802 1690
0 0 29 27 0 0 0 0 0 0 0 0 0 0 0 0 0 0 0 0 0 0 0 0 517 2411 2020 1656 991 549 1033 1143 1587 2054 1925 789 1558 1384 1395 1620 1436 1123 1141 1196
0 21 30 13 5 0 0 0 0 0 0 0 0 0 0 0 0 0 0 0 0 0 0 0 1760 2474 2004 1425 700 0 228 1596 2118 1984 1761 1698 1179 1414 1626 1408 420 381 329 374
0 1 0 5 8 0 0 0 0 0 0 0 0 0 0 0 0 0 0 0 0 0 0 20 1096 2865 1983 1802 891 706 1489 1637 1699 1628 1397 1487 1364 1263 1589 728 406 257 2 0
0 0 0 7 3 4 0 0 0 0 0 0 0 0 0 0 0 0 0 0 0 0 0 401 1375 2423 1766 1821 1462 1633 1445 1317 1512 1427 1308 1288 1005 1183 1042 732 591 25 0 0
59 0 0 0 0 22 0 0 15 5 0 0 0 0 0 0 0 0 0 0 0 0 0 318 2262 2361 1603 1507 1151 1072 1254 1520 1207 334 312 112 1 0 0 34 2 0 0 0
21 0 0 0 0 0 0 0 0 0 1 0 0 0 37 0 0 0 0 0 0 0 0 684 1656 1310 1136 871 698 686 644 285 0 0 0 0 0 0 0 0 0 0 0 0
15 33 34 1 88 6 0 0 0 0 38 52 2 0 0 4 3 0 0 0 0 687 774 815 910 721 592 354 168 73 46 0 0 0 0 0 0 0 0 0 0 0 0 0
17 22 30 0 18 20 0 1 10 0 0 5 18 0 174 284 0 0 140 521 812 700 476 373 412 296 242 112 10 0 0 0 0 0 0 0 0 0 0 0 0 0 0 0
0 86 45 0 15 0 0 0 1 0 0 26 47 152 207 346 316 195 185 775 741 476 206 192 88 22 5 0 0 0 0 0 0 0 0 0 0 0 0 0 0 0 0 0
7 31 20 20 81 100 42 4 7 0 29 12 21 39 319 254 307 417 666 682 555 384 141 23 0 0 0 0 0 0 0 0 0 0 0 0 0 0 0 0 0 0 0 0
18 8 5 44 39 131 54 33 0 0 4 21 38 225 53 11 43 87 170 261 220 121 0 0 0 0 0 0 0 0 0 0 0 0 0 0 0 0 0 0 0 0 0 0
23 7 0 87 266 92 55 6 4 0 0 34 112 26 4 7 13 30 41 16 0 0 0 0 0 0 0 0 0 0 0 0 0 0 0 0 0 0 0 0 0 0 0 0
2 4 9 74 211 135 43 0 0 0 5 333 158 66 28 2 25 73 1 0 0 0 0 0 0 0 0 0 0 0 0 0 0 0 0 0 0 0 0 0 0 0 0 0
1 19 31 12 71 163 28 1 0 43 400 250 90 29 4 0 0 0 0 0 0 0 0 0 0 0 0 0 0 0 0 0 0 0 0 0 0 0 0 0 0 2 1 0
5 7 12 0 61 2 73 15 385 384 341 128 14 0 0 0 0 0 0 0 0 0 0 0 0 0 0 0 0 0 0 0 0 0 0 0 0 0 0 0 0 4 3 2
9 5 46 20 5 11 1 0 10 76 145 10 1 0 0 0 0 0 0 0 0 0 0 0 0 0 0 0 0 0 0 0 0 0 0 0 0 0 0 3 3 3 5 3
2 10 3 57 0 1 10 0 0 2 55 0 0 8 0 0 0 0 0 0 0 0 0 0 0 0 0 0 0 0 0 0 0 0 0 0 0 0 0 1 2 1 0 0
3 1 7 5 4 5 4 3 0 2 1 1 0 0 0 0 0 0 0 0 0 0 0 0 0 0 0 0 0 0 0 0 0 0 0 0 0 0 4 3 2 0 0 0
3 1 1 0 1 2 0 0 26 1 0 0 0 0 0 0 0 0 0 0 0 0 0 0 0 0 0 0 0 0 0 0 0 0 0 0 0 0 1 0 0 0 0 0
4 8 3 1 1 6 5 3 1 0 0 0 0 0 0 0 0 0 0 0 0 0 0 0 0 0 0 0 0 0 0 0 0 0 0 0 0 0 0 0 0 0 0 0
0 5 5 6 1 4 2 0 0 0 1 0 0 0 0 0 0 0 0 0 0 0 0 0 0 0 0 0 0 0 0 0 0 0 0 0 0 0 0 0 0 0 0 0
11 7 3 3 2 0 0 0 2 4 0 0 0 0 0 0 0 0 0 0 0 0 0 0 0 0 0 0 0 0 0 0 0 0 0 0 0 0 0 0 0 0 0 0
17 12 5 1 8 6 0 0 0 0 0 0 0 0 0 0 0 0 0 0 0 0 0 0 0 0 0 0 0 0 0 0 0 0 0 0 0 0 0 0 0 0 0 0